Location: Newark
(48.6461°N, 4.3644°W)
Time: 04:42:18
(UTC+00:00)

Transit 4A - Pass Details

Date: 30 January 2020
Orbit: 872 x 973 km, 66.8° (Epoch: 18 February)

Event Time Altitude Azimuth Distance (km) Brightness Sun altitude
Rises 05:03:15 0° 186° (S) 3,542 10.8 -27.6°
Reaches altitude 10° 05:05:57 10° 178° (S) 2,588 10.2 -27.2°
Maximum altitude 05:11:23 37° 113° (ESE) 1,361 9.2 -26.3°
Drops below altitude 10° 05:16:43 10° 48° (NE) 2,550 10.8 -25.4°
Sets 05:19:21 0° 41° (NE) 3,484 11.5 -25.0°
